• In Russia
  • List of Countries
  • For 7 days
  • Water Temperature
  • Satellite Maps
  • Weather Map
  • Weather Widgets
  • user-avatar
    Login

    Hourly Weather Lankaran

    Today, 21 September, Friday

    Time Temperature Precipitation Wind Pressure Humidity
    00:00 +13°C° 0 mm 2 mps 637 mmHg 90%
    01:00 +13°C° 0 mm 1 mps 637 mmHg 90%
    02:00 +13°C° 0 mm 1 mps 637 mmHg 91%
    03:00 +12°C° 0 mm 1 mps 637 mmHg 92%
    04:00 +12°C° 0.1 mm 1 mps 637 mmHg 92%
    05:00 +12°C° 0.1 mm 2 mps 637 mmHg 92%
    06:00 +12°C° 0.1 mm 2 mps 637 mmHg 92%
    07:00 +14°C° 0.1 mm 2 mps 637 mmHg 85%
    08:00 +15°C° 0.1 mm 2 mps 637 mmHg 78%
    09:00 +16°C° 0.1 mm 2 mps 638 mmHg 70%
    10:00 +17°C° 0.1 mm 2 mps 638 mmHg 67%
    11:00 +18°C° 0.1 mm 2 mps 638 mmHg 63%
    12:00 +19°C° 0.1 mm 2 mps 638 mmHg 60%
    13:00 +19°C° 0.2 mm 3 mps 638 mmHg 60%
    14:00 +19°C° 0.2 mm 3 mps 637 mmHg 60%
    15:00 +20°C° 0.2 mm 3 mps 637 mmHg 60%
    16:00 +19°C° 0.1 mm 3 mps 637 mmHg 67%
    17:00 +17°C° 0.1 mm 3 mps 636 mmHg 74%
    18:00 +16°C° 0.1 mm 3 mps 636 mmHg 81%
    19:00 +16°C° 0 mm 2 mps 636 mmHg 83%
    20:00 +15°C° 0 mm 2 mps 637 mmHg 86%
    21:00 +15°C° 0 mm 2 mps 637 mmHg 89%
    22:00 +15°C° 0 mm 2 mps 637 mmHg 90%
    23:00 +14°C° 0 mm 2 mps 637 mmHg 90%

    Tomorrow, 22 September, Saturday

    Time Temperature Precipitation Wind Pressure Humidity
    00:00 +14°C° 0 mm 1 mps 637 mmHg 91%
    01:00 +14°C° 0 mm 1 mps 637 mmHg 91%
    02:00 +14°C° 0 mm 1 mps 637 mmHg 92%
    03:00 +14°C° 0 mm 1 mps 637 mmHg 92%
    04:00 +14°C° 0.1 mm 1 mps 637 mmHg 92%
    05:00 +14°C° 0.1 mm 1 mps 637 mmHg 92%
    06:00 +13°C° 0.1 mm 1 mps 637 mmHg 92%
    07:00 +15°C° 0.1 mm 1 mps 637 mmHg 85%
    08:00 +16°C° 0.1 mm 2 mps 638 mmHg 78%
    09:00 +17°C° 0.1 mm 2 mps 638 mmHg 72%
    10:00 +18°C° 0 mm 2 mps 638 mmHg 67%
    11:00 +19°C° 0 mm 2 mps 638 mmHg 62%
    12:00 +20°C° 0 mm 3 mps 638 mmHg 58%
    13:00 +20°C° 0 mm 3 mps 637 mmHg 58%
    14:00 +20°C° 0 mm 3 mps 637 mmHg 58%
    15:00 +20°C° 0 mm 3 mps 637 mmHg 58%
    16:00 +19°C° 0 mm 3 mps 636 mmHg 65%
    17:00 +17°C° 0 mm 2 mps 636 mmHg 73%
    18:00 +16°C° 0 mm 2 mps 636 mmHg 80%
    19:00 +15°C° 0.1 mm 2 mps 636 mmHg 81%
    20:00 +15°C° 0.1 mm 2 mps 636 mmHg 83%
    21:00 +15°C° 0.1 mm 1 mps 637 mmHg 84%
    22:00 +14°C° 0.2 mm 1 mps 636 mmHg 85%
    23:00 +14°C° 0.2 mm 1 mps 636 mmHg 87%

    Day after tomorrow, 23 September, Sunday

    Time Temperature Precipitation Wind Pressure Humidity
    00:00 +14°C° 0.2 mm 1 mps 636 mmHg 88%
    01:00 +13°C° 0 mm 1 mps 636 mmHg 89%
    02:00 +13°C° 0 mm 1 mps 636 mmHg 90%
    03:00 +13°C° 0 mm 1 mps 635 mmHg 91%
    04:00 +13°C° 0.1 mm 1 mps 636 mmHg 91%
    05:00 +13°C° 0.1 mm 1 mps 636 mmHg 91%
    06:00 +13°C° 0.1 mm 1 mps 636 mmHg 91%
    07:00 +14°C° 0 mm 1 mps 636 mmHg 84%
    08:00 +15°C° 0 mm 1 mps 637 mmHg 77%
    09:00 +18°C° 0 mm 1 mps 637 mmHg 71%
    10:00 +18°C° 0 mm 2 mps 637 mmHg 66%
    11:00 +19°C° 0 mm 2 mps 637 mmHg 61%
    12:00 +20°C° 0 mm 2 mps 637 mmHg 56%
    13:00 +20°C° 0.3 mm 2 mps 636 mmHg 56%
    14:00 +20°C° 0.3 mm 2 mps 636 mmHg 55%
    15:00 +20°C° 0.3 mm 2 mps 636 mmHg 55%
    16:00 +19°C° 0.1 mm 2 mps 635 mmHg 62%
    17:00 +17°C° 0.1 mm 2 mps 635 mmHg 69%
    18:00 +16°C° 0.1 mm 1 mps 634 mmHg 76%
    19:00 +15°C° 0 mm 1 mps 634 mmHg 78%
    20:00 +15°C° 0 mm 1 mps 635 mmHg 80%
    21:00 +14°C° 0 mm 1 mps 635 mmHg 81%
    22:00 +14°C° 0 mm 1 mps 634 mmHg 81%
    23:00 +14°C° 0 mm 1 mps 634 mmHg 81%

    24 September, Monday

    Time Temperature Precipitation Wind Pressure Humidity
    00:00 +14°C° 0 mm 1 mps 634 mmHg 80%
    01:00 +14°C° 0 mm 1 mps 634 mmHg 81%
    02:00 +13°C° 0 mm 1 mps 634 mmHg 81%
    03:00 +13°C° 0 mm 1 mps 633 mmHg 82%
    04:00 +13°C° 0 mm 2 mps 634 mmHg 83%
    05:00 +13°C° 0 mm 2 mps 634 mmHg 84%
    06:00 +13°C° 0 mm 2 mps 634 mmHg 85%
    07:00 +14°C° 0 mm 2 mps 635 mmHg 77%
    08:00 +16°C° 0 mm 2 mps 636 mmHg 70%
    09:00 +17°C° 0 mm 2 mps 636 mmHg 62%
    10:00 +19°C° 0 mm 3 mps 636 mmHg 56%
    11:00 +20°C° 0 mm 3 mps 637 mmHg 50%
    12:00 +21°C° 0 mm 3 mps 637 mmHg 44%
    13:00 +21°C° 0.2 mm 4 mps 637 mmHg 45%
    14:00 +20°C° 0.2 mm 4 mps 636 mmHg 47%
    15:00 +20°C° 0.2 mm 4 mps 636 mmHg 48%
    16:00 +18°C° 0.2 mm 4 mps 636 mmHg 58%
    17:00 +15°C° 0.2 mm 4 mps 636 mmHg 67%
    18:00 +14°C° 0.2 mm 3 mps 636 mmHg 77%
    19:00 +14°C° 0.1 mm 3 mps 636 mmHg 80%
    20:00 +13°C° 0.1 mm 3 mps 636 mmHg 83%
    21:00 +13°C° 0.1 mm 3 mps 637 mmHg 85%
    22:00 +14°C° 0.1 mm 2 mps 636 mmHg 86%
    23:00 +14°C° 0.1 mm 2 mps 636 mmHg 86%

    25 September, Tuesday

    Time Temperature Precipitation Wind Pressure Humidity
    00:00 +14°C° 0.1 mm 2 mps 636 mmHg 86%
    01:00 +13°C° 0 mm 1 mps 636 mmHg 87%
    02:00 +13°C° 0 mm 1 mps 635 mmHg 88%
    03:00 +12°C° 0 mm 1 mps 635 mmHg 89%
    04:00 +12°C° 0 mm 1 mps 635 mmHg 88%
    05:00 +12°C° 0 mm 1 mps 635 mmHg 87%
    06:00 +12°C° 0 mm 1 mps 635 mmHg 86%
    07:00 +14°C° 0 mm 1 mps 635 mmHg 74%
    08:00 +18°C° 0 mm 1 mps 636 mmHg 62%
    09:00 +19°C° 0 mm 2 mps 637 mmHg 50%
    10:00 +20°C° 0 mm 2 mps 637 mmHg 46%
    11:00 +23°C° 0 mm 2 mps 636 mmHg 43%
    12:00 +24°C° 0 mm 3 mps 636 mmHg 39%
    13:00 +24°C° 0 mm 3 mps 636 mmHg 41%
    14:00 +24°C° 0 mm 3 mps 636 mmHg 42%
    15:00 +24°C° 0 mm 3 mps 635 mmHg 44%
    16:00 +21°C° 0 mm 2 mps 635 mmHg 53%
    17:00 +19°C° 0 mm 2 mps 634 mmHg 63%
    18:00 +18°C° 0 mm 2 mps 634 mmHg 72%
    19:00 +17°C° 0 mm 2 mps 634 mmHg 76%
    20:00 +18°C° 0 mm 1 mps 634 mmHg 79%
    21:00 +16°C° 0 mm 1 mps 635 mmHg 82%
    22:00 +16°C° 0 mm 1 mps 634 mmHg 83%
    23:00 +15°C° 0 mm 1 mps 634 mmHg 84%

    26 September, Wednesday

    Time Temperature Precipitation Wind Pressure Humidity
    00:00 +15°C° 0 mm 1 mps 634 mmHg 84%
    01:00 +14°C° 0 mm 1 mps 634 mmHg 85%
    02:00 +14°C° 0 mm 1 mps 634 mmHg 86%
    03:00 +14°C° 0 mm 1 mps 634 mmHg 87%
    04:00 +13°C° 0 mm 0 mps 634 mmHg 87%
    05:00 +13°C° 0 mm 0 mps 634 mmHg 88%
    06:00 +13°C° 0 mm 0 mps 635 mmHg 88%
    07:00 +16°C° 0 mm 1 mps 635 mmHg 80%
    08:00 +18°C° 0 mm 1 mps 636 mmHg 73%
    09:00 +19°C° 0 mm 2 mps 637 mmHg 65%
    10:00 +20°C° 0 mm 2 mps 637 mmHg 61%
    11:00 +21°C° 0 mm 2 mps 637 mmHg 58%
    12:00 +22°C° 0 mm 3 mps 637 mmHg 54%
    13:00 +22°C° 0.1 mm 3 mps 636 mmHg 57%
    14:00 +21°C° 0.1 mm 3 mps 636 mmHg 60%
    15:00 +21°C° 0.1 mm 3 mps 636 mmHg 63%
    16:00 +20°C° 0.1 mm 3 mps 636 mmHg 70%
    17:00 +19°C° 0.1 mm 3 mps 636 mmHg 77%
    18:00 +17°C° 0.1 mm 3 mps 636 mmHg 84%
    19:00 +17°C° 0.1 mm 3 mps 636 mmHg 85%
    20:00 +17°C° 0.1 mm 3 mps 636 mmHg 87%
    21:00 +16°C° 0.1 mm 3 mps 637 mmHg 88%
    22:00 +16°C° 0.2 mm 3 mps 637 mmHg 88%
    23:00 +16°C° 0.2 mm 3 mps 637 mmHg 88%
    Show more